{"data":{"norad_id":68109,"epoch":"2026-09-19T15:13:35.002560Z","epoch_age_seconds":130951,"freshness":"FRESH","line1":"1 68109U 26044J   26262.63443290  .00010929  00000+0  34035-3 0  9997","line2":"2 68109  97.2853 221.5756 0001645  97.4387 262.7043 15.33445245 31309","mean_motion":15.33445245,"eccentricity":0.0001645,"inclination_deg":97.2853,"raan_deg":221.5756,"arg_perigee_deg":97.4387,"mean_anomaly_deg":262.7043,"bstar":0.00034035,"rev_number":3130,"period_min":93.906189653351,"perigee_km":464.41666026181,"apogee_km":466.66823079939,"semimajor_km":6843.6794455306,"source":"CELESTRAK","updated_at":"2026-09-20T09:00:43.786696Z"}}